Voltar ao catálogo

STARLINK-3132

AtivoComunicaçõesVLEO
NORAD 49457·PAYLOAD·🇺🇸 United States

Lançado Nov 13, 2021 de Cape Canaveral Space Force Station

Loading…

Próximas Passagens (próximas 24 horas)

TLE

AtualizadoSource: CelesTrak SupGP

Época: Sep 14, 2026, 20:50 UTC

1 49457C 21104BB  26257.86854167  .00023761  00000+0  76426-3 0  2577
2 49457  53.1585  78.0659 0001204  82.7328  55.4758 15.31683829    11

Acompanhe STARLINK-3132 em tempo real com AllMySat

Download on the App Store